EAG5534 SKBO-GOBD

Flight info

Callsign EAG5534
Flight time 7h 9m
Altitude 35000
Route MAVDA DCT AUC DCT SFD DCT MUN DCT POS DCT NOSOB/N0478F370 DCT TUTLO/N0471F390 DCT LUMPO
Aircraft MD11/H-SDE1E2E3FGHIJ2J3J4J5M1RWXY/LB1D1

Departure

Time 2026-04-25 16:11
Airport El Dorado International Airport (SKBO)

Arrival

Time 2026-04-25 23:21
Airport Blaise Diagne International Airport (GOBD)
Time Latitude Longitude Altitude Speed Heading
2026-04-25 15:43 4.70162 -74.14420 8380 ft 0 kts 128°
2026-04-25 15:59 4.70163 -74.14422 8380 ft 1 kts 128°
2026-04-25 15:59 4.70174 -74.14437 8379 ft 3 kts 126°
2026-04-25 15:59 4.70185 -74.14452 8380 ft 2 kts 127°
2026-04-25 16:00 4.70194 -74.14465 8380 ft 3 kts 99°
2026-04-25 16:00 4.70194 -74.14476 8379 ft 3 kts 68°
2026-04-25 16:00 4.70180 -74.14498 8379 ft 3 kts 40°
2026-04-25 16:00 4.70172 -74.14504 8377 ft 1 kts 37°
2026-04-25 16:01 4.70171 -74.14505 8380 ft 0 kts 37°
2026-04-25 16:04 4.70171 -74.14504 8378 ft 1 kts 37°
2026-04-25 16:04 4.70184 -74.14495 8379 ft 4 kts 37°
2026-04-25 16:05 4.70214 -74.14472 8379 ft 7 kts 37°
2026-04-25 16:05 4.70256 -74.14440 8378 ft 8 kts 37°
2026-04-25 16:05 4.70348 -74.14370 8379 ft 10 kts 37°
2026-04-25 16:06 4.70409 -74.14338 8379 ft 10 kts
2026-04-25 16:06 4.70462 -74.14370 8379 ft 10 kts 306°
2026-04-25 16:06 4.70510 -74.14438 8380 ft 15 kts 306°
2026-04-25 16:06 4.70579 -74.14532 8379 ft 19 kts 307°
2026-04-25 16:07 4.70669 -74.14650 8381 ft 23 kts 307°
2026-04-25 16:07 4.70738 -74.14740 8378 ft 26 kts 307°
2026-04-25 16:07 4.70989 -74.15070 8378 ft 20 kts 307°
2026-04-25 16:08 4.71063 -74.15168 8380 ft 16 kts 307°
2026-04-25 16:08 4.71128 -74.15213 8379 ft 9 kts 342°
2026-04-25 16:08 4.71173 -74.15224 8378 ft 6 kts 349°
2026-04-25 16:08 4.71216 -74.15229 8377 ft 7 kts 353°
2026-04-25 16:09 4.71270 -74.15226 8377 ft 9 kts 15°
2026-04-25 16:09 4.71322 -74.15195 8376 ft 5 kts 51°
2026-04-25 16:09 4.71322 -74.15186 8375 ft 1 kts 88°
2026-04-25 16:09 4.71313 -74.15165 8378 ft 3 kts 127°
2026-04-25 16:10 4.71312 -74.15164 8378 ft 0 kts 130°
2026-04-25 16:10 4.71304 -74.15155 8376 ft 13 kts 130°
2026-04-25 16:10 4.71099 -74.14891 8375 ft 83 kts 127°
2026-04-25 16:10 4.70612 -74.14248 8377 ft 147 kts 127°
2026-04-25 16:11 4.69886 -74.13286 8379 ft 195 kts 126°
2026-04-25 16:11 4.69024 -74.12163 8798 ft 205 kts 126°
2026-04-25 16:11 4.68174 -74.11028 9594 ft 203 kts 126°
2026-04-25 16:11 4.67272 -74.09931 10167 ft 206 kts 136°
2026-04-25 16:12 4.66111 -74.09076 10549 ft 212 kts 162°
2026-04-25 16:12 4.64689 -74.09096 10955 ft 209 kts 204°
2026-04-25 16:12 4.63616 -74.10046 11314 ft 209 kts 240°
2026-04-25 16:12 4.63242 -74.10953 11477 ft 220 kts 255°
2026-04-25 16:13 4.62832 -74.13072 11683 ft 247 kts 261°
2026-04-25 16:13 4.62542 -74.14829 11818 ft 264 kts 260°
2026-04-25 16:13 4.62226 -74.16695 11986 ft 277 kts 260°
2026-04-25 16:13 4.61894 -74.18606 12383 ft 279 kts 259°
2026-04-25 16:14 4.61552 -74.20531 12819 ft 281 kts 259°
2026-04-25 16:14 4.61224 -74.22475 13164 ft 286 kts 265°
2026-04-25 16:14 4.61442 -74.24495 13259 ft 303 kts 289°
2026-04-25 16:14 4.62550 -74.26370 13390 ft 326 kts 313°
2026-04-25 16:15 4.64406 -74.27756 13541 ft 350 kts 335°
2026-04-25 16:15 4.66818 -74.28430 13695 ft 373 kts 355°
2026-04-25 16:15 4.69435 -74.28209 14122 ft 384 kts 16°
2026-04-25 16:15 4.71880 -74.27108 14733 ft 388 kts 34°
2026-04-25 16:16 4.73880 -74.25270 15367 ft 392 kts 52°
2026-04-25 16:16 4.75285 -74.22919 15954 ft 397 kts 65°
2026-04-25 16:16 4.76377 -74.20354 16542 ft 401 kts 68°
2026-04-25 16:16 4.77383 -74.17729 17108 ft 406 kts 69°
2026-04-25 16:17 4.78378 -74.15057 17671 ft 411 kts 69°
2026-04-25 16:17 4.79376 -74.12356 18262 ft 415 kts 69°
2026-04-25 16:17 4.80383 -74.09625 18769 ft 419 kts 69°
2026-04-25 16:17 4.81383 -74.06912 19280 ft 421 kts 69°
2026-04-25 16:18 4.82073 -74.05042 19312 ft 424 kts 69°
2026-04-25 16:18 4.82407 -74.04136 19460 ft 425 kts 69°
2026-04-25 16:18 4.85677 -73.95362 21011 ft 432 kts 67°
2026-04-25 16:19 4.86948 -73.92669 21467 ft 434 kts 61°
2026-04-25 16:19 4.88509 -73.90076 21978 ft 436 kts 56°
2026-04-25 16:19 4.90307 -73.87564 22473 ft 439 kts 52°
2026-04-25 16:20 4.94168 -73.82819 23493 ft 444 kts 49°
2026-04-25 16:20 4.96187 -73.80448 23966 ft 447 kts 49°
2026-04-25 16:20 5.00261 -73.75685 24854 ft 452 kts 50°
2026-04-25 16:21 5.02310 -73.73279 25301 ft 455 kts 50°
2026-04-25 16:21 5.04378 -73.70843 25757 ft 458 kts 50°
2026-04-25 16:21 5.06450 -73.68400 26203 ft 461 kts 50°
2026-04-25 16:21 5.08532 -73.65940 26643 ft 464 kts 50°
2026-04-25 16:22 5.10628 -73.63463 27098 ft 467 kts 51°
2026-04-25 16:22 5.12738 -73.60970 27515 ft 470 kts 51°
2026-04-25 16:22 5.14143 -73.59310 27786 ft 473 kts 51°
2026-04-25 16:22 5.17002 -73.55928 28359 ft 477 kts 51°
2026-04-25 16:23 5.19125 -73.53416 28775 ft 480 kts 51°
2026-04-25 16:23 5.21291 -73.50855 29200 ft 483 kts 51°
2026-04-25 16:23 5.23468 -73.48280 29639 ft 485 kts 51°
2026-04-25 16:23 5.25654 -73.45695 30180 ft 485 kts 51°
2026-04-25 16:24 5.27831 -73.43122 30651 ft 484 kts 51°
2026-04-25 16:24 5.29300 -73.41385 30963 ft 483 kts 51°
2026-04-25 16:24 5.31472 -73.38817 31429 ft 482 kts 51°
2026-04-25 16:24 5.33638 -73.36255 31834 ft 482 kts 51°
2026-04-25 16:25 5.35771 -73.33731 32186 ft 481 kts 51°
2026-04-25 16:25 5.37237 -73.31998 32433 ft 480 kts 51°
2026-04-25 16:25 5.40094 -73.28618 32913 ft 479 kts 52°
2026-04-25 16:25 5.42253 -73.26061 33074 ft 481 kts 52°
2026-04-25 16:26 5.44423 -73.23492 33119 ft 485 kts 52°
2026-04-25 16:26 5.48800 -73.18311 33131 ft 486 kts 52°
2026-04-25 16:27 5.53172 -73.13135 33127 ft 486 kts 52°
2026-04-25 16:27 5.57544 -73.07957 33131 ft 486 kts 52°
2026-04-25 16:28 5.61918 -73.02776 33127 ft 486 kts 52°
2026-04-25 16:28 5.66291 -72.97595 33129 ft 486 kts 52°
2026-04-25 16:29 5.70657 -72.92417 33129 ft 486 kts 52°
2026-04-25 16:29 5.74758 -72.87041 33129 ft 484 kts 59°
2026-04-25 16:30 5.78312 -72.81315 33130 ft 483 kts 61°
2026-04-25 16:30 5.81780 -72.75543 33131 ft 483 kts 61°
2026-04-25 16:31 5.85287 -72.69794 33130 ft 483 kts 60°
2026-04-25 16:31 5.88824 -72.64053 33119 ft 483 kts 60°
2026-04-25 16:32 5.92343 -72.58350 33120 ft 484 kts 60°
2026-04-25 16:32 5.95894 -72.52591 33118 ft 484 kts 60°
2026-04-25 16:33 5.99444 -72.46830 33120 ft 484 kts 60°
2026-04-25 16:33 6.02996 -72.41064 33117 ft 484 kts 60°
2026-04-25 16:34 6.06520 -72.35342 33098 ft 484 kts 60°
2026-04-25 16:34 6.10067 -72.29580 33121 ft 484 kts 60°
2026-04-25 16:35 6.13613 -72.23818 33098 ft 483 kts 60°
2026-04-25 16:35 6.17142 -72.18082 33095 ft 482 kts 60°
2026-04-25 16:36 6.20662 -72.12353 33091 ft 481 kts 60°
2026-04-25 16:36 6.24177 -72.06632 33075 ft 481 kts 60°
2026-04-25 16:37 6.27691 -72.00915 33076 ft 481 kts 60°
2026-04-25 16:37 6.31211 -71.95187 33026 ft 481 kts 60°
2026-04-25 16:38 6.34704 -71.89500 33002 ft 481 kts 60°
2026-04-25 16:38 6.38225 -71.83767 32995 ft 482 kts 60°
2026-04-25 16:39 6.41749 -71.78027 32994 ft 482 kts 60°
2026-04-25 16:39 6.45274 -71.72283 32995 ft 482 kts 60°
2026-04-25 16:40 6.48797 -71.66541 32995 ft 482 kts 60°
2026-04-25 16:40 6.52321 -71.60793 32992 ft 483 kts 59°
2026-04-25 16:41 6.55833 -71.55066 32986 ft 484 kts 60°
2026-04-25 16:41 6.61143 -71.46401 32978 ft 485 kts 60°
2026-04-25 16:42 6.64681 -71.40617 32981 ft 485 kts 60°
2026-04-25 16:42 6.68222 -71.34832 32978 ft 486 kts 60°
2026-04-25 16:43 6.69995 -71.31936 33084 ft 486 kts 60°
2026-04-25 16:43 6.71762 -71.29049 33525 ft 484 kts 60°
2026-04-25 16:43 6.73505 -71.26202 33903 ft 483 kts 60°
2026-04-25 16:43 6.75282 -71.23299 34262 ft 481 kts 60°
2026-04-25 16:44 6.77011 -71.20472 34588 ft 479 kts 60°
2026-04-25 16:44 6.78755 -71.17621 34869 ft 479 kts 60°
2026-04-25 16:44 6.82253 -71.11901 34975 ft 480 kts 60°
2026-04-25 16:45 6.85748 -71.06184 34975 ft 479 kts 60°
2026-04-25 16:45 6.89244 -71.00465 34976 ft 479 kts 60°
2026-04-25 16:46 6.92738 -70.94746 34971 ft 479 kts 60°
2026-04-25 16:46 6.95053 -70.90955 34971 ft 479 kts 60°
2026-04-25 16:47 6.99725 -70.83304 34972 ft 479 kts 60°
2026-04-25 16:47 7.03189 -70.77627 34965 ft 479 kts 60°
2026-04-25 16:48 7.06671 -70.71913 34968 ft 479 kts 60°
2026-04-25 16:48 7.09354 -70.65833 34964 ft 475 kts 75°
2026-04-25 16:49 7.10930 -70.59366 34969 ft 475 kts 79°
2026-04-25 16:49 7.12388 -70.52877 34965 ft 476 kts 78°
2026-04-25 16:50 7.13943 -70.46377 34958 ft 478 kts 77°
2026-04-25 16:50 7.15550 -70.39877 34973 ft 479 kts 77°
2026-04-25 16:51 7.17173 -70.33345 34972 ft 482 kts 77°
2026-04-25 16:51 7.18523 -70.27899 34972 ft 482 kts 77°
2026-04-25 16:52 7.20407 -70.20288 34962 ft 482 kts 77°
2026-04-25 16:52 7.22026 -70.13740 34972 ft 482 kts 78°
2026-04-25 16:53 7.24453 -70.03914 34971 ft 482 kts 78°
2026-04-25 16:54 7.26073 -69.97349 34961 ft 482 kts 78°
2026-04-25 16:54 7.27690 -69.90793 34963 ft 482 kts 78°
2026-04-25 16:55 7.29301 -69.84246 34972 ft 481 kts 78°
2026-04-25 16:55 7.30907 -69.77710 34966 ft 480 kts 78°
2026-04-25 16:56 7.32504 -69.71217 34961 ft 480 kts 78°
2026-04-25 16:56 7.34111 -69.64681 34967 ft 480 kts 78°
2026-04-25 16:57 7.35717 -69.58149 34962 ft 480 kts 78°
2026-04-25 16:57 7.37322 -69.51617 34970 ft 480 kts 78°
2026-04-25 16:58 7.38912 -69.45142 34965 ft 479 kts 78°
2026-04-25 16:58 7.40521 -69.38583 34964 ft 479 kts 78°
2026-04-25 16:59 7.42108 -69.32109 34968 ft 479 kts 78°
2026-04-25 16:59 7.43712 -69.25563 34955 ft 484 kts 78°
2026-04-25 17:00 7.45336 -69.18923 34971 ft 490 kts 78°
2026-04-25 17:00 7.46975 -69.12227 34963 ft 493 kts 78°
2026-04-25 17:01 7.48618 -69.05509 34952 ft 493 kts 78°
2026-04-25 17:01 7.50254 -68.98795 34957 ft 493 kts 78°
2026-04-25 17:02 7.51889 -68.92086 34962 ft 493 kts 78°
2026-04-25 17:02 7.53516 -68.85417 34945 ft 493 kts 78°
2026-04-25 17:03 7.55156 -68.78690 34949 ft 493 kts 78°
2026-04-25 17:03 7.56791 -68.71979 34960 ft 493 kts 78°
2026-04-25 17:04 7.58429 -68.65254 34942 ft 493 kts 78°
2026-04-25 17:04 7.60063 -68.58540 34956 ft 493 kts 78°
2026-04-25 17:05 7.61697 -68.51819 34946 ft 493 kts 78°
2026-04-25 17:05 7.64132 -68.41793 34948 ft 493 kts 77°
2026-04-25 17:06 7.65761 -68.35081 34944 ft 493 kts 78°
2026-04-25 17:06 7.67389 -68.28371 34947 ft 493 kts 78°
2026-04-25 17:07 7.69013 -68.21658 34949 ft 493 kts 78°
2026-04-25 17:07 7.70635 -68.14939 34939 ft 494 kts 77°
2026-04-25 17:08 7.72260 -68.08217 34952 ft 494 kts 77°
2026-04-25 17:08 7.73878 -68.01528 34938 ft 494 kts 77°
2026-04-25 17:09 7.75506 -67.94792 34937 ft 496 kts 77°
2026-04-25 17:09 7.77139 -67.88028 34947 ft 496 kts 77°
2026-04-25 17:10 7.78772 -67.81261 34935 ft 496 kts 77°
2026-04-25 17:10 7.80406 -67.74488 34935 ft 496 kts 77°
2026-04-25 17:11 7.81760 -67.68868 34934 ft 496 kts 77°
2026-04-25 17:11 7.83391 -67.62096 34933 ft 496 kts 77°
2026-04-25 17:12 7.85020 -67.55326 34935 ft 496 kts 77°
2026-04-25 17:12 7.87207 -67.48723 34945 ft 498 kts 69°
2026-04-25 17:13 7.89556 -67.43405 34930 ft 499 kts 66°
2026-04-25 17:13 7.92944 -67.35973 34941 ft 499 kts 67°
2026-04-25 17:14 7.95764 -67.29629 34926 ft 499 kts 67°
2026-04-25 17:14 7.98570 -67.23231 34924 ft 499 kts 68°
2026-04-25 17:15 8.01370 -67.16832 34939 ft 499 kts 68°
2026-04-25 17:15 8.04179 -67.10417 34924 ft 499 kts 68°
2026-04-25 17:16 8.06983 -67.04011 34931 ft 499 kts 68°
2026-04-25 17:16 8.09788 -66.97603 34936 ft 499 kts 68°
2026-04-25 17:17 8.12593 -66.91190 34925 ft 499 kts 68°
2026-04-25 17:17 8.15395 -66.84780 34936 ft 499 kts 68°
2026-04-25 17:18 8.18193 -66.78378 34920 ft 499 kts 68°
2026-04-25 17:18 8.20990 -66.71965 34935 ft 499 kts 68°
2026-04-25 17:19 8.23782 -66.65557 34937 ft 499 kts 68°
2026-04-25 17:19 8.26579 -66.59144 34934 ft 499 kts 68°
2026-04-25 17:20 8.29377 -66.52729 34920 ft 499 kts 68°
2026-04-25 17:20 8.32158 -66.46348 34934 ft 499 kts 68°
2026-04-25 17:21 8.34953 -66.39932 34923 ft 500 kts 68°
2026-04-25 17:21 8.37759 -66.33487 34926 ft 501 kts 68°
2026-04-25 17:22 8.40090 -66.28132 34924 ft 501 kts 68°
2026-04-25 17:22 8.43371 -66.20589 34936 ft 502 kts 68°
2026-04-25 17:23 8.46161 -66.14171 34923 ft 502 kts 68°
2026-04-25 17:23 8.48969 -66.07709 34938 ft 501 kts 68°
2026-04-25 17:24 8.51773 -66.01253 34938 ft 502 kts 68°
2026-04-25 17:24 8.54573 -65.94793 34923 ft 502 kts 68°
2026-04-25 17:25 8.57373 -65.88329 34931 ft 502 kts 68°
2026-04-25 17:25 8.60172 -65.81869 34941 ft 502 kts 68°
2026-04-25 17:26 8.62976 -65.75399 34928 ft 502 kts 68°
2026-04-25 17:26 8.65759 -65.68973 34938 ft 502 kts 68°
2026-04-25 17:27 8.68556 -65.62514 34924 ft 502 kts 68°
2026-04-25 17:27 8.70426 -65.58192 34937 ft 502 kts 68°
2026-04-25 17:28 8.74145 -65.49591 34925 ft 502 kts 68°
2026-04-25 17:28 8.76941 -65.43122 34924 ft 502 kts 68°
2026-04-25 17:29 8.79735 -65.36656 34939 ft 502 kts 68°
2026-04-25 17:29 8.82527 -65.30187 34921 ft 502 kts 68°
2026-04-25 17:30 8.85314 -65.23727 34936 ft 501 kts 68°
2026-04-25 17:30 8.88101 -65.17256 34931 ft 501 kts 68°
2026-04-25 17:31 8.90880 -65.10796 34921 ft 501 kts 68°
2026-04-25 17:31 8.93667 -65.04324 34935 ft 501 kts 68°
2026-04-25 17:32 8.96446 -64.97868 34942 ft 501 kts 68°
2026-04-25 17:32 8.99225 -64.91410 34939 ft 500 kts 68°
2026-04-25 17:33 9.01999 -64.84960 34924 ft 500 kts 68°
2026-04-25 17:33 9.04755 -64.78548 34922 ft 500 kts 68°
2026-04-25 17:34 9.07527 -64.72093 34936 ft 500 kts 68°
2026-04-25 17:34 9.10296 -64.65646 34924 ft 500 kts 68°
2026-04-25 17:35 9.13067 -64.59188 34921 ft 500 kts 68°
2026-04-25 17:35 9.15835 -64.52732 34936 ft 500 kts 68°
2026-04-25 17:36 9.18603 -64.46273 34922 ft 500 kts 68°
2026-04-25 17:36 9.21367 -64.39810 34917 ft 500 kts 68°
2026-04-25 17:37 9.24128 -64.33348 34937 ft 500 kts 68°
2026-04-25 17:37 9.26896 -64.26876 34924 ft 500 kts 68°
2026-04-25 17:38 9.28725 -64.22599 34934 ft 500 kts 68°
2026-04-25 17:38 9.32402 -64.13996 34933 ft 500 kts 68°
2026-04-25 17:39 9.35165 -64.07527 34920 ft 500 kts 68°
2026-04-25 17:39 9.37928 -64.01052 34931 ft 501 kts 68°
2026-04-25 17:40 9.40693 -63.94573 34918 ft 501 kts 68°
2026-04-25 17:40 9.43459 -63.88086 34932 ft 501 kts 68°
2026-04-25 17:41 9.46219 -63.81609 34928 ft 501 kts 68°
2026-04-25 17:41 9.48979 -63.75127 34916 ft 501 kts 68°
2026-04-25 17:42 9.51726 -63.68672 34928 ft 503 kts 68°
2026-04-25 17:42 9.54495 -63.62150 34911 ft 504 kts 68°
2026-04-25 17:43 9.57264 -63.55624 34914 ft 504 kts 68°
2026-04-25 17:43 9.60038 -63.49093 34906 ft 504 kts 68°
2026-04-25 17:44 9.62787 -63.42618 34903 ft 504 kts 68°
2026-04-25 17:44 9.65560 -63.36084 34909 ft 504 kts 68°
2026-04-25 17:45 9.67412 -63.31717 34897 ft 504 kts 68°
2026-04-25 17:45 9.71100 -63.23016 34894 ft 504 kts 68°
2026-04-25 17:46 9.73862 -63.16490 34915 ft 504 kts 68°
2026-04-25 17:46 9.76581 -63.09938 34905 ft 503 kts 69°
2026-04-25 17:47 9.79250 -63.03428 34902 ft 503 kts 69°
2026-04-25 17:47 9.81942 -62.96867 35029 ft 503 kts 69°
2026-04-25 17:48 9.84627 -62.90325 35553 ft 501 kts 68°
2026-04-25 17:48 9.85970 -62.87057 35778 ft 500 kts 68°
2026-04-25 17:48 9.87289 -62.83844 36006 ft 500 kts 68°
2026-04-25 17:49 9.88622 -62.80593 36233 ft 499 kts 68°
2026-04-25 17:49 9.89954 -62.77348 36449 ft 498 kts 68°
2026-04-25 17:49 9.91285 -62.74102 36675 ft 497 kts 68°
2026-04-25 17:49 9.92612 -62.70863 36870 ft 497 kts 68°
2026-04-25 17:50 9.93937 -62.67630 37062 ft 497 kts 68°
2026-04-25 17:50 9.95263 -62.64395 37246 ft 496 kts 68°
2026-04-25 17:50 9.96587 -62.61162 37429 ft 496 kts 68°
2026-04-25 17:50 9.97909 -62.57932 37616 ft 495 kts 68°
2026-04-25 17:51 9.99229 -62.54708 37780 ft 495 kts 68°
2026-04-25 17:51 10.00549 -62.51483 37971 ft 494 kts 68°
2026-04-25 17:51 10.01866 -62.48261 38114 ft 494 kts 68°
2026-04-25 17:51 10.03185 -62.45036 38284 ft 494 kts 68°
2026-04-25 17:52 10.04499 -62.41820 38446 ft 493 kts 68°
2026-04-25 17:52 10.07123 -62.35392 38728 ft 493 kts 69°
2026-04-25 17:52 10.08433 -62.32173 38849 ft 492 kts 69°
2026-04-25 17:53 10.09740 -62.28965 38962 ft 492 kts 69°
2026-04-25 17:53 10.12356 -62.22548 38918 ft 492 kts 69°
2026-04-25 17:54 10.14952 -62.16180 38915 ft 491 kts 68°
2026-04-25 17:54 10.17544 -62.09822 38919 ft 491 kts 68°
2026-04-25 17:55 10.20138 -62.03453 38923 ft 491 kts 68°
2026-04-25 17:55 10.22743 -61.97051 38922 ft 490 kts 68°
2026-04-25 17:56 10.25346 -61.90652 38919 ft 491 kts 68°
2026-04-25 17:56 10.27511 -61.85325 38925 ft 491 kts 68°
2026-04-25 17:57 10.30543 -61.77863 38924 ft 491 kts 68°
2026-04-25 17:57 10.32723 -61.72492 38923 ft 492 kts 68°
2026-04-25 17:58 10.35316 -61.66103 38923 ft 492 kts 68°
2026-04-25 17:58 10.37922 -61.59673 38927 ft 492 kts 68°
2026-04-25 17:59 10.40522 -61.53239 38930 ft 492 kts 68°
2026-04-25 17:59 10.43124 -61.46800 38927 ft 493 kts 68°
2026-04-25 18:00 10.45730 -61.40358 38930 ft 493 kts 68°
2026-04-25 18:00 10.48108 -61.33839 38936 ft 491 kts 76°
2026-04-25 18:01 10.49442 -61.27038 38935 ft 489 kts 82°
2026-04-25 18:01 10.50471 -61.20257 38936 ft 489 kts 82°
2026-04-25 18:02 10.51558 -61.13448 38936 ft 488 kts 82°
2026-04-25 18:02 10.52701 -61.06649 38936 ft 488 kts 81°
2026-04-25 18:03 10.53855 -60.99864 38936 ft 487 kts 82°
2026-04-25 18:03 10.55007 -60.93081 38936 ft 486 kts 81°
2026-04-25 18:04 10.56153 -60.86311 38938 ft 486 kts 82°
2026-04-25 18:04 10.57298 -60.79533 38936 ft 487 kts 82°
2026-04-25 18:05 10.58441 -60.72753 38935 ft 487 kts 82°
2026-04-25 18:05 10.59587 -60.65953 38936 ft 487 kts 82°
2026-04-25 18:06 10.60721 -60.59213 38936 ft 487 kts 82°
2026-04-25 18:06 10.61862 -60.52421 38937 ft 488 kts 82°
2026-04-25 18:07 10.62997 -60.45612 38935 ft 488 kts 82°
2026-04-25 18:07 10.64130 -60.38816 38936 ft 488 kts 82°
2026-04-25 18:08 10.65268 -60.32008 38936 ft 488 kts 82°
2026-04-25 18:08 10.66408 -60.25189 38936 ft 489 kts 82°
2026-04-25 18:09 10.67546 -60.18372 38933 ft 489 kts 82°
2026-04-25 18:09 10.68682 -60.11553 38933 ft 489 kts 82°
2026-04-25 18:10 10.69810 -60.04774 38936 ft 490 kts 82°
2026-04-25 18:10 10.70946 -59.97938 38936 ft 490 kts 82°
2026-04-25 18:11 10.72081 -59.91097 38933 ft 490 kts 82°
2026-04-25 18:11 10.73214 -59.84256 38934 ft 491 kts 82°
2026-04-25 18:12 10.74350 -59.77396 38931 ft 493 kts 82°
2026-04-25 18:12 10.75486 -59.70519 38933 ft 493 kts 82°
2026-04-25 18:13 10.76613 -59.63659 38933 ft 494 kts 82°
2026-04-25 18:13 10.77743 -59.56757 38933 ft 495 kts 82°
2026-04-25 18:14 10.79451 -59.46364 38936 ft 497 kts 82°
2026-04-25 18:14 10.80593 -59.39409 38936 ft 498 kts 82°
2026-04-25 18:15 10.81728 -59.32490 38934 ft 499 kts 82°
2026-04-25 18:15 10.82868 -59.25519 38933 ft 500 kts 81°
2026-04-25 18:16 10.84011 -59.18531 38933 ft 500 kts 81°
2026-04-25 18:17 10.85723 -59.08042 38933 ft 501 kts 81°
2026-04-25 18:17 10.86855 -59.01088 38932 ft 502 kts 81°
2026-04-25 18:18 10.87996 -58.94076 38933 ft 502 kts 81°
2026-04-25 18:18 10.89135 -58.87064 38933 ft 502 kts 81°
2026-04-25 18:19 10.90259 -58.80097 38933 ft 502 kts 81°
2026-04-25 18:19 10.91386 -58.73094 38933 ft 502 kts 81°
2026-04-25 18:20 10.92518 -58.66083 38930 ft 502 kts 81°
2026-04-25 18:20 10.93648 -58.59082 38930 ft 502 kts 81°
2026-04-25 18:21 10.94778 -58.52074 38934 ft 502 kts 81°
2026-04-25 18:21 10.95907 -58.45057 38932 ft 502 kts 81°
2026-04-25 18:22 10.97033 -58.38052 38939 ft 501 kts 81°
2026-04-25 18:22 10.98157 -58.31050 38933 ft 501 kts 81°
2026-04-25 18:23 10.99280 -58.24039 38934 ft 501 kts 81°
2026-04-25 18:23 11.00393 -58.17081 38935 ft 501 kts 81°
2026-04-25 18:24 11.01510 -58.10086 38935 ft 500 kts 81°
2026-04-25 18:24 11.02626 -58.03093 38935 ft 500 kts 81°
2026-04-25 18:25 11.03735 -57.96088 38935 ft 500 kts 81°
2026-04-25 18:25 11.04841 -57.89091 38934 ft 500 kts 81°
2026-04-25 18:26 11.05942 -57.82150 38936 ft 500 kts 81°
2026-04-25 18:26 11.07050 -57.75157 38935 ft 500 kts 81°
2026-04-25 18:27 11.08159 -57.68157 38938 ft 500 kts 81°
2026-04-25 18:27 11.09265 -57.61157 38940 ft 501 kts 81°
2026-04-25 18:28 11.10370 -57.54157 38940 ft 501 kts 81°
2026-04-25 18:28 11.11475 -57.47140 38938 ft 502 kts 81°
2026-04-25 18:29 11.13132 -57.36605 38938 ft 502 kts 82°
2026-04-25 18:30 11.15331 -57.22580 38940 ft 503 kts 81°
2026-04-25 18:30 11.16430 -57.15542 38942 ft 504 kts 82°
2026-04-25 18:31 11.17523 -57.08493 38939 ft 504 kts 82°
2026-04-25 18:31 11.18619 -57.01440 38939 ft 504 kts 82°
2026-04-25 18:32 11.19717 -56.94394 38940 ft 503 kts 81°
2026-04-25 18:32 11.21438 -56.87481 38941 ft 504 kts 72°
2026-04-25 18:33 11.23779 -56.80791 38941 ft 503 kts 70°
2026-04-25 18:33 11.26173 -56.74098 38943 ft 502 kts 70°
2026-04-25 18:34 11.28502 -56.67387 38941 ft 502 kts 71°
2026-04-25 18:34 11.30796 -56.60670 38941 ft 502 kts 71°
2026-04-25 18:35 11.33073 -56.53989 38944 ft 501 kts 71°
2026-04-25 18:35 11.35359 -56.47282 38943 ft 501 kts 71°
2026-04-25 18:36 11.37647 -56.40570 38941 ft 501 kts 71°
2026-04-25 18:36 11.39935 -56.33853 38943 ft 501 kts 71°
2026-04-25 18:37 11.42220 -56.27139 38943 ft 501 kts 71°
2026-04-25 18:37 11.44498 -56.20439 38945 ft 500 kts 71°
2026-04-25 18:38 11.46773 -56.13742 38942 ft 500 kts 71°
2026-04-25 18:38 11.49043 -56.07033 38941 ft 499 kts 71°
2026-04-25 18:39 11.51311 -56.00328 38943 ft 499 kts 71°
2026-04-25 18:39 11.53564 -55.93675 38944 ft 500 kts 71°
2026-04-25 18:40 11.55836 -55.86966 38945 ft 500 kts 71°
2026-04-25 18:40 11.58104 -55.80263 38943 ft 500 kts 71°
2026-04-25 18:41 11.60371 -55.73557 38947 ft 500 kts 71°
2026-04-25 18:41 11.62635 -55.66851 38947 ft 500 kts 71°
2026-04-25 18:42 11.64131 -55.62419 38945 ft 499 kts 71°
2026-04-25 18:42 11.67142 -55.53491 38948 ft 499 kts 71°
2026-04-25 18:43 11.69399 -55.46790 38948 ft 499 kts 71°
2026-04-25 18:43 11.71653 -55.40093 38946 ft 499 kts 71°
2026-04-25 18:44 11.73904 -55.33398 38946 ft 499 kts 72°
2026-04-25 18:44 11.76149 -55.26699 38951 ft 498 kts 71°
2026-04-25 18:45 11.78388 -55.20010 38948 ft 498 kts 72°
2026-04-25 18:45 11.80619 -55.13355 38948 ft 498 kts 71°
2026-04-25 18:46 11.82864 -55.06657 38950 ft 498 kts 72°
2026-04-25 18:46 11.85107 -54.99959 38950 ft 498 kts 72°
2026-04-25 18:47 11.86987 -54.94341 38953 ft 498 kts 72°
2026-04-25 18:47 11.89224 -54.87648 38952 ft 498 kts 72°
2026-04-25 18:48 11.91445 -54.80996 38953 ft 498 kts 72°
2026-04-25 18:48 11.93682 -54.74296 38953 ft 498 kts 72°
2026-04-25 18:49 11.95914 -54.67600 38951 ft 497 kts 72°
2026-04-25 18:49 11.98143 -54.60908 38955 ft 497 kts 72°
2026-04-25 18:50 12.00375 -54.54203 38955 ft 497 kts 72°
2026-04-25 18:50 12.02584 -54.47546 38953 ft 497 kts 72°
2026-04-25 18:51 12.04440 -54.41940 38952 ft 497 kts 72°
2026-04-25 18:51 12.07017 -54.34169 38952 ft 497 kts 72°
2026-04-25 18:52 12.09234 -54.27484 38956 ft 497 kts 72°
2026-04-25 18:52 12.11448 -54.20802 38954 ft 496 kts 72°
2026-04-25 18:53 12.13657 -54.14131 38953 ft 495 kts 72°
2026-04-25 18:53 12.15853 -54.07492 38952 ft 495 kts 72°
2026-04-25 18:54 12.19162 -53.97476 38954 ft 496 kts 72°
2026-04-25 18:55 12.21365 -53.90802 38952 ft 496 kts 72°
2026-04-25 18:55 12.23572 -53.84108 38956 ft 497 kts 72°
2026-04-25 18:56 12.25778 -53.77412 38953 ft 497 kts 72°
2026-04-25 18:56 12.27983 -53.70715 38954 ft 495 kts 73°
2026-04-25 18:57 12.30153 -53.64090 38960 ft 494 kts 73°
2026-04-25 18:57 12.32338 -53.57421 38958 ft 494 kts 73°
2026-04-25 18:58 12.34525 -53.50757 38956 ft 494 kts 73°
2026-04-25 18:58 12.37800 -53.40768 38962 ft 494 kts 73°
2026-04-25 18:59 12.42173 -53.27410 38958 ft 496 kts 72°
2026-04-25 19:00 12.45459 -53.17359 38960 ft 496 kts 73°
2026-04-25 19:01 12.48721 -53.07362 38960 ft 495 kts 73°
2026-04-25 19:01 12.50901 -53.00675 38957 ft 495 kts 73°
2026-04-25 19:02 12.54158 -52.90672 38957 ft 493 kts 73°
2026-04-25 19:03 12.57046 -52.81757 38960 ft 493 kts 73°
2026-04-25 19:03 12.59560 -52.74002 38960 ft 495 kts 73°
2026-04-25 19:04 12.62816 -52.63966 38961 ft 495 kts 73°
2026-04-25 19:05 12.67161 -52.50550 38964 ft 496 kts 73°
2026-04-25 19:06 12.69325 -52.43861 38966 ft 494 kts 73°
2026-04-25 19:06 12.72566 -52.33828 38966 ft 494 kts 73°
2026-04-25 19:07 12.75787 -52.23842 38963 ft 493 kts 73°
2026-04-25 19:08 12.79015 -52.13820 38965 ft 495 kts 73°
2026-04-25 19:09 12.82959 -52.01523 38966 ft 495 kts 73°
2026-04-25 19:10 12.86531 -51.90379 38966 ft 495 kts 73°
2026-04-25 19:10 12.88681 -51.83674 38966 ft 495 kts 73°
2026-04-25 19:11 12.90826 -51.76978 38966 ft 494 kts 73°
2026-04-25 19:11 12.92967 -51.70291 38966 ft 493 kts 73°
2026-04-25 19:12 12.95104 -51.63605 38966 ft 493 kts 74°
2026-04-25 19:12 12.97231 -51.56945 38964 ft 494 kts 74°
2026-04-25 19:13 12.99369 -51.50244 38966 ft 495 kts 73°
2026-04-25 19:13 13.01509 -51.43530 38966 ft 495 kts 73°
2026-04-25 19:14 13.03650 -51.36807 38966 ft 495 kts 73°
2026-04-25 19:14 13.05786 -51.30093 38968 ft 496 kts 73°
2026-04-25 19:15 13.07921 -51.23357 38966 ft 496 kts 74°
2026-04-25 19:15 13.10054 -51.16614 38966 ft 496 kts 74°
2026-04-25 19:16 13.12177 -51.09913 38969 ft 496 kts 74°
2026-04-25 19:16 13.14313 -51.03174 38968 ft 497 kts 73°
2026-04-25 19:17 13.16448 -50.96429 38972 ft 497 kts 73°
2026-04-25 19:17 13.18588 -50.89664 38971 ft 498 kts 73°
2026-04-25 19:18 13.20722 -50.82907 38974 ft 498 kts 73°
2026-04-25 19:18 13.22859 -50.76138 38974 ft 498 kts 73°
2026-04-25 19:19 13.24994 -50.69364 38971 ft 498 kts 73°
2026-04-25 19:19 13.27127 -50.62594 38971 ft 498 kts 74°
2026-04-25 19:20 13.29257 -50.55823 38974 ft 498 kts 74°
2026-04-25 19:20 13.31385 -50.49052 38980 ft 498 kts 73°
2026-04-25 19:21 13.33495 -50.42313 38972 ft 499 kts 73°
2026-04-25 19:21 13.36684 -50.32114 38974 ft 500 kts 73°
2026-04-25 19:22 13.38811 -50.25319 38974 ft 500 kts 73°
2026-04-25 19:23 13.42005 -50.15110 38976 ft 500 kts 73°
2026-04-25 19:23 13.45179 -50.04946 38977 ft 500 kts 73°
2026-04-25 19:24 13.47306 -49.98130 38977 ft 500 kts 73°
2026-04-25 19:25 13.51538 -49.84539 38977 ft 501 kts 73°
2026-04-25 19:25 13.53656 -49.77725 38979 ft 501 kts 73°
2026-04-25 19:26 13.55775 -49.70905 38977 ft 501 kts 73°
2026-04-25 19:26 13.57892 -49.64075 38977 ft 501 kts 73°
2026-04-25 19:27 13.59288 -49.59552 38977 ft 501 kts 73°
2026-04-25 19:27 13.62106 -49.50424 38977 ft 500 kts 73°
2026-04-25 19:28 13.64213 -49.43609 38977 ft 500 kts 73°
2026-04-25 19:28 13.66318 -49.36796 38977 ft 500 kts 73°
2026-04-25 19:29 13.68410 -49.30017 38982 ft 501 kts 73°
2026-04-25 19:29 13.70513 -49.23197 38980 ft 500 kts 73°
2026-04-25 19:30 13.72614 -49.16375 38982 ft 500 kts 73°
2026-04-25 19:30 13.74715 -49.09543 38982 ft 500 kts 73°
2026-04-25 19:31 13.76813 -49.02716 38982 ft 500 kts 73°
2026-04-25 19:31 13.78905 -48.95902 38982 ft 499 kts 73°
2026-04-25 19:32 13.80642 -48.90239 38982 ft 499 kts 73°
2026-04-25 19:32 13.82380 -48.84566 38982 ft 499 kts 73°
2026-04-25 19:33 13.84809 -48.76594 38982 ft 499 kts 74°
2026-04-25 19:33 13.86889 -48.69770 38982 ft 499 kts 74°
2026-04-25 19:34 13.88969 -48.62956 38982 ft 499 kts 73°
2026-04-25 19:34 13.91048 -48.56141 38982 ft 499 kts 74°
2026-04-25 19:35 13.93112 -48.49366 38984 ft 499 kts 74°
2026-04-25 19:35 13.95185 -48.42556 38985 ft 499 kts 74°
2026-04-25 19:36 13.97258 -48.35737 38985 ft 498 kts 74°
2026-04-25 19:36 13.99331 -48.28910 38984 ft 499 kts 73°
2026-04-25 19:37 14.01403 -48.22079 38985 ft 500 kts 73°
2026-04-25 19:37 14.03474 -48.15247 38988 ft 499 kts 73°
2026-04-25 19:38 14.05541 -48.08417 38988 ft 499 kts 73°
2026-04-25 19:38 14.07606 -48.01586 38988 ft 499 kts 74°
2026-04-25 19:39 14.09658 -47.94759 38987 ft 499 kts 74°
2026-04-25 19:39 14.11698 -47.87974 38988 ft 499 kts 73°
2026-04-25 19:40 14.13753 -47.81151 38988 ft 499 kts 73°
2026-04-25 19:40 14.15810 -47.74317 38988 ft 500 kts 73°
2026-04-25 19:41 14.17867 -47.67477 38990 ft 500 kts 73°
2026-04-25 19:41 14.19590 -47.61739 38991 ft 500 kts 73°
2026-04-25 19:42 14.21981 -47.53770 38991 ft 500 kts 73°
2026-04-25 19:42 14.24032 -47.46924 38991 ft 500 kts 73°
2026-04-25 19:43 14.26084 -47.40068 38990 ft 500 kts 73°
2026-04-25 19:43 14.28134 -47.33212 38990 ft 500 kts 73°
2026-04-25 19:44 14.30180 -47.26357 38993 ft 501 kts 73°
2026-04-25 19:44 14.32228 -47.19490 38993 ft 501 kts 73°
2026-04-25 19:45 14.34266 -47.12615 38993 ft 501 kts 73°
2026-04-25 19:45 14.36305 -47.05742 38993 ft 501 kts 73°
2026-04-25 19:46 14.38332 -46.98919 38993 ft 501 kts 73°
2026-04-25 19:46 14.40375 -46.92039 38993 ft 501 kts 73°
2026-04-25 19:47 14.42414 -46.85164 38991 ft 501 kts 73°
2026-04-25 19:47 14.44449 -46.78293 38992 ft 501 kts 73°
2026-04-25 19:48 14.46490 -46.71396 38990 ft 502 kts 73°
2026-04-25 19:48 14.48524 -46.64511 38993 ft 502 kts 73°
2026-04-25 19:49 14.50216 -46.58780 38997 ft 502 kts 73°
2026-04-25 19:49 14.52593 -46.50719 38996 ft 502 kts 73°
2026-04-25 19:50 14.55629 -46.40406 38999 ft 502 kts 73°
2026-04-25 19:51 14.57653 -46.33498 38999 ft 502 kts 73°
2026-04-25 19:51 14.59670 -46.26596 38999 ft 502 kts 73°
2026-04-25 19:52 14.61694 -46.19682 38996 ft 503 kts 73°
2026-04-25 19:52 14.63723 -46.12755 38996 ft 503 kts 73°
2026-04-25 19:53 14.65750 -46.05830 38999 ft 503 kts 73°
2026-04-25 19:53 14.67762 -45.98943 38998 ft 504 kts 73°
2026-04-25 19:54 14.69784 -45.92015 39001 ft 504 kts 73°
2026-04-25 19:54 14.71803 -45.85090 39004 ft 504 kts 73°
2026-04-25 19:55 14.73820 -45.78161 39006 ft 504 kts 73°
2026-04-25 19:55 14.75838 -45.71219 39005 ft 505 kts 73°
2026-04-25 19:56 14.77856 -45.64271 39004 ft 505 kts 73°
2026-04-25 19:56 14.79872 -45.57322 39004 ft 505 kts 73°
2026-04-25 19:57 14.81877 -45.50376 39007 ft 504 kts 73°
2026-04-25 19:57 14.83879 -45.43425 39007 ft 504 kts 73°
2026-04-25 19:58 14.85872 -45.36520 39005 ft 504 kts 73°
2026-04-25 19:58 14.87879 -45.29569 39007 ft 505 kts 73°
2026-04-25 19:59 14.89885 -45.22612 39007 ft 505 kts 73°
2026-04-25 19:59 14.91890 -45.15650 39006 ft 505 kts 73°
2026-04-25 20:00 14.93891 -45.08691 39008 ft 504 kts 73°
2026-04-25 20:00 14.95890 -45.01731 39010 ft 505 kts 73°
2026-04-25 20:01 14.98887 -44.91282 39010 ft 504 kts 73°
2026-04-25 20:01 15.00866 -44.84368 39009 ft 504 kts 73°
2026-04-25 20:02 15.02856 -44.77409 39009 ft 504 kts 73°
2026-04-25 20:02 15.04842 -44.70446 39010 ft 504 kts 73°
2026-04-25 20:03 15.06819 -44.63478 39013 ft 504 kts 73°
2026-04-25 20:03 15.08787 -44.56554 39017 ft 504 kts 73°
2026-04-25 20:04 15.10768 -44.49587 39014 ft 504 kts 73°
2026-04-25 20:04 15.12745 -44.42632 39016 ft 504 kts 73°
2026-04-25 20:05 15.14721 -44.35670 39015 ft 504 kts 73°
2026-04-25 20:05 15.16696 -44.28703 39015 ft 504 kts 73°
2026-04-25 20:06 15.18667 -44.21740 39020 ft 504 kts 73°
2026-04-25 20:06 15.20635 -44.14779 39020 ft 504 kts 73°
2026-04-25 20:07 15.22604 -44.07809 39018 ft 504 kts 73°
2026-04-25 20:07 15.24558 -44.00880 39016 ft 504 kts 73°
2026-04-25 20:08 15.26521 -43.93910 39017 ft 504 kts 73°
2026-04-25 20:08 15.28480 -43.86929 39018 ft 505 kts 73°
2026-04-25 20:09 15.30431 -43.79944 39018 ft 505 kts 73°
2026-04-25 20:09 15.32388 -43.72956 39021 ft 505 kts 73°
2026-04-25 20:10 15.34347 -43.65962 39023 ft 505 kts 73°
2026-04-25 20:10 15.36294 -43.59005 39023 ft 505 kts 73°
2026-04-25 20:11 15.38250 -43.52008 39023 ft 505 kts 73°
2026-04-25 20:11 15.40202 -43.45013 39023 ft 505 kts 73°
2026-04-25 20:12 15.42154 -43.38007 39021 ft 506 kts 73°
2026-04-25 20:12 15.43459 -43.33321 39023 ft 506 kts 73°
2026-04-25 20:13 15.46054 -43.23990 39023 ft 506 kts 73°
2026-04-25 20:13 15.48001 -43.16975 39023 ft 506 kts 73°
2026-04-25 20:14 15.49945 -43.09963 39023 ft 506 kts 73°
2026-04-25 20:14 15.51882 -43.02945 39028 ft 506 kts 73°
2026-04-25 20:15 15.53812 -42.95928 39023 ft 506 kts 73°
2026-04-25 20:15 15.55747 -42.88908 39023 ft 506 kts 73°
2026-04-25 20:16 15.57683 -42.81888 39024 ft 507 kts 73°
2026-04-25 20:16 15.59616 -42.74872 39026 ft 506 kts 73°
2026-04-25 20:17 15.61547 -42.67851 39028 ft 506 kts 73°
2026-04-25 20:17 15.63464 -42.60870 39034 ft 506 kts 73°
2026-04-25 20:18 15.65390 -42.53851 39032 ft 506 kts 73°
2026-04-25 20:18 15.67314 -42.46825 39031 ft 506 kts 73°
2026-04-25 20:19 15.69235 -42.39804 39034 ft 506 kts 73°
2026-04-25 20:19 15.70829 -42.33968 39032 ft 506 kts 73°
2026-04-25 20:20 15.72745 -42.26947 39031 ft 506 kts 73°
2026-04-25 20:20 15.74656 -42.19910 39031 ft 506 kts 73°
2026-04-25 20:21 15.76561 -42.12870 39034 ft 506 kts 73°
2026-04-25 20:21 15.78466 -42.05848 39034 ft 505 kts 73°
2026-04-25 20:22 15.80053 -42.00000 39036 ft 506 kts 73°
2026-04-25 20:22 15.82282 -41.91778 39037 ft 506 kts 73°
2026-04-25 20:23 15.84172 -41.84793 39039 ft 506 kts 73°
2026-04-25 20:23 15.86072 -41.77765 39039 ft 506 kts 73°
2026-04-25 20:24 15.87972 -41.70724 39037 ft 506 kts 73°
2026-04-25 20:24 15.89872 -41.63675 39040 ft 506 kts 73°
2026-04-25 20:25 15.91767 -41.56630 39040 ft 506 kts 73°
2026-04-25 20:25 15.93652 -41.49617 39039 ft 507 kts 73°
2026-04-25 20:26 15.95546 -41.42559 39039 ft 507 kts 73°
2026-04-25 20:26 15.97429 -41.35502 39039 ft 507 kts 73°
2026-04-25 20:27 15.99311 -41.28435 39039 ft 507 kts 73°
2026-04-25 20:27 16.01199 -41.21360 39042 ft 508 kts 73°
2026-04-25 20:28 16.03086 -41.14287 39043 ft 508 kts 73°
2026-04-25 20:28 16.04971 -41.07214 39045 ft 507 kts 73°
2026-04-25 20:29 16.06852 -41.00146 39045 ft 508 kts 73°
2026-04-25 20:29 16.08732 -40.93072 39045 ft 508 kts 73°
2026-04-25 20:30 16.10612 -40.85985 39048 ft 508 kts 73°
2026-04-25 20:30 16.12489 -40.78903 39048 ft 508 kts 73°
2026-04-25 20:31 16.14366 -40.71808 39046 ft 508 kts 73°
2026-04-25 20:31 16.16230 -40.64752 39045 ft 509 kts 73°
2026-04-25 20:32 16.18102 -40.57654 39045 ft 509 kts 73°
2026-04-25 20:32 16.19963 -40.50548 39048 ft 509 kts 73°
2026-04-25 20:33 16.21822 -40.43449 39051 ft 509 kts 73°
2026-04-25 20:33 16.23387 -40.37486 39051 ft 509 kts 73°
2026-04-25 20:34 16.25556 -40.29217 39050 ft 509 kts 73°
2026-04-25 20:34 16.27421 -40.22096 39052 ft 510 kts 73°
2026-04-25 20:35 16.29284 -40.14973 39053 ft 510 kts 73°
2026-04-25 20:35 16.31143 -40.07852 39053 ft 510 kts 73°
2026-04-25 20:36 16.32990 -40.00770 39051 ft 510 kts 73°
2026-04-25 20:36 16.34845 -39.93643 39050 ft 510 kts 73°
2026-04-25 20:37 16.36700 -39.86508 39049 ft 510 kts 73°
2026-04-25 20:37 16.38550 -39.79379 39053 ft 510 kts 73°
2026-04-25 20:38 16.40398 -39.72240 39050 ft 510 kts 73°
2026-04-25 20:38 16.42235 -39.65094 39051 ft 510 kts 73°
2026-04-25 20:39 16.44062 -39.58001 39054 ft 510 kts 73°
2026-04-25 20:39 16.45606 -39.52015 39053 ft 511 kts 73°
2026-04-25 20:40 16.47748 -39.43703 39053 ft 511 kts 73°
2026-04-25 20:40 16.49590 -39.36543 39056 ft 511 kts 73°
2026-04-25 20:41 16.51429 -39.29382 39056 ft 511 kts 73°
2026-04-25 20:41 16.53266 -39.22221 39056 ft 511 kts 73°
2026-04-25 20:42 16.55092 -39.15089 39056 ft 512 kts 73°
2026-04-25 20:42 16.56924 -39.07921 39056 ft 512 kts 74°
2026-04-25 20:43 16.58756 -39.00745 39058 ft 512 kts 74°
2026-04-25 20:43 16.60586 -38.93565 39058 ft 512 kts 74°
2026-04-25 20:44 16.62410 -38.86378 39056 ft 512 kts 74°
2026-04-25 20:44 16.64224 -38.79192 39056 ft 512 kts 74°
2026-04-25 20:45 16.66041 -38.72011 39058 ft 512 kts 74°
2026-04-25 20:45 16.67862 -38.64824 39058 ft 512 kts 74°
2026-04-25 20:46 16.69669 -38.57680 39060 ft 513 kts 74°
2026-04-25 20:46 16.71484 -38.50493 39058 ft 513 kts 74°
2026-04-25 20:47 16.73299 -38.43295 39058 ft 513 kts 74°
2026-04-25 20:47 16.75115 -38.36081 39059 ft 513 kts 74°
2026-04-25 20:48 16.76924 -38.28881 39059 ft 513 kts 74°
2026-04-25 20:48 16.78722 -38.21715 39059 ft 513 kts 74°
2026-04-25 20:49 16.80528 -38.14505 39061 ft 514 kts 74°
2026-04-25 20:49 16.82333 -38.07290 39061 ft 514 kts 74°
2026-04-25 20:50 16.84126 -38.00072 39062 ft 514 kts 74°
2026-04-25 20:50 16.85917 -37.92851 39063 ft 514 kts 74°
2026-04-25 20:51 16.87716 -37.85612 39063 ft 515 kts 74°
2026-04-25 20:51 16.89517 -37.78369 39061 ft 515 kts 74°
2026-04-25 20:52 16.91012 -37.72344 39061 ft 515 kts 74°
2026-04-25 20:52 16.93101 -37.63917 39064 ft 515 kts 74°
2026-04-25 20:53 16.94892 -37.56673 39064 ft 515 kts 74°
2026-04-25 20:53 16.96683 -37.49421 39067 ft 515 kts 74°
2026-04-25 20:54 16.98440 -37.42163 39070 ft 516 kts 77°
2026-04-25 20:54 16.99092 -37.34698 39071 ft 518 kts 91°
2026-04-25 20:55 16.98719 -37.27169 39067 ft 518 kts 94°
2026-04-25 20:55 16.98293 -37.19658 39067 ft 519 kts 92°
2026-04-25 20:56 16.97989 -37.12127 39067 ft 519 kts 92°
2026-04-25 20:56 16.97735 -37.04581 39067 ft 519 kts 91°
2026-04-25 20:57 16.97485 -36.97087 39071 ft 519 kts 91°
2026-04-25 20:57 16.97225 -36.89543 39070 ft 520 kts 91°
2026-04-25 20:58 16.96958 -36.81994 39069 ft 520 kts 92°
2026-04-25 20:58 16.96689 -36.74448 39069 ft 520 kts 91°
2026-04-25 20:59 16.96418 -36.66935 39069 ft 520 kts 91°
2026-04-25 20:59 16.96144 -36.59377 39067 ft 520 kts 92°
2026-04-25 21:00 16.95959 -36.54345 39071 ft 518 kts 92°
2026-04-25 21:01 16.95429 -36.40566 39071 ft 518 kts 92°
2026-04-25 21:01 16.95142 -36.33052 39070 ft 518 kts 92°
2026-04-25 21:02 16.94856 -36.25528 39075 ft 518 kts 92°
2026-04-25 21:02 16.94568 -36.18005 39070 ft 519 kts 92°
2026-04-25 21:03 16.94275 -36.10458 39072 ft 519 kts 92°
2026-04-25 21:03 16.93982 -36.02971 39072 ft 519 kts 92°
2026-04-25 21:04 16.93684 -35.95430 39070 ft 520 kts 92°
2026-04-25 21:04 16.93383 -35.87883 39070 ft 520 kts 92°
2026-04-25 21:05 16.93079 -35.80321 39071 ft 520 kts 92°
2026-04-25 21:05 16.92772 -35.72762 39073 ft 521 kts 92°
2026-04-25 21:06 16.92514 -35.66465 39075 ft 521 kts 92°
2026-04-25 21:06 16.92190 -35.58904 39072 ft 521 kts 92°
2026-04-25 21:07 16.91866 -35.51332 39067 ft 521 kts 92°
2026-04-25 21:07 16.91546 -35.43767 39063 ft 522 kts 92°
2026-04-25 21:08 16.91226 -35.36218 39071 ft 520 kts 92°
2026-04-25 21:08 16.90906 -35.28714 39074 ft 520 kts 92°
2026-04-25 21:09 16.90416 -35.17398 39070 ft 521 kts 92°
2026-04-25 21:09 16.90085 -35.09825 39070 ft 521 kts 92°
2026-04-25 21:10 16.89752 -35.02257 39072 ft 521 kts 92°
2026-04-25 21:10 16.89415 -34.94687 39070 ft 522 kts 92°
2026-04-25 21:11 16.89075 -34.87107 39070 ft 523 kts 92°
2026-04-25 21:11 16.88732 -34.79517 39070 ft 523 kts 92°
2026-04-25 21:12 16.88377 -34.71979 39074 ft 523 kts 92°
2026-04-25 21:12 16.88077 -34.65624 39073 ft 523 kts 92°
2026-04-25 21:13 16.87666 -34.56783 39072 ft 523 kts 92°
2026-04-25 21:13 16.87311 -34.49182 39072 ft 523 kts 92°
2026-04-25 21:14 16.86956 -34.41630 39070 ft 524 kts 92°
2026-04-25 21:14 16.86596 -34.34027 39070 ft 524 kts 92°
2026-04-25 21:15 16.86232 -34.26424 39069 ft 524 kts 92°
2026-04-25 21:15 16.85867 -34.18824 39073 ft 523 kts 92°
2026-04-25 21:16 16.85499 -34.11245 39067 ft 523 kts 92°
2026-04-25 21:16 16.85127 -34.03656 39067 ft 523 kts 92°
2026-04-25 21:17 16.84756 -33.96119 39066 ft 523 kts 92°
2026-04-25 21:17 16.84373 -33.88539 39068 ft 523 kts 92°
2026-04-25 21:18 16.83982 -33.80959 39067 ft 523 kts 92°
2026-04-25 21:18 16.83596 -33.73385 39067 ft 523 kts 92°
2026-04-25 21:19 16.83211 -33.65801 39068 ft 524 kts 92°
2026-04-25 21:19 16.82825 -33.58240 39067 ft 525 kts 92°
2026-04-25 21:20 16.82497 -33.51863 39063 ft 525 kts 92°
2026-04-25 21:20 16.82038 -33.43015 39064 ft 524 kts 92°
2026-04-25 21:21 16.81640 -33.35402 39067 ft 526 kts 92°
2026-04-25 21:21 16.81241 -33.27819 39067 ft 526 kts 92°
2026-04-25 21:22 16.80838 -33.20201 39067 ft 526 kts 92°
2026-04-25 21:22 16.80430 -33.12566 39068 ft 526 kts 92°
2026-04-25 21:23 16.80019 -33.04942 39064 ft 527 kts 92°
2026-04-25 21:23 16.79594 -32.97312 39061 ft 525 kts 93°
2026-04-25 21:24 16.79172 -32.89710 39064 ft 524 kts 93°
2026-04-25 21:24 16.78754 -32.82102 39064 ft 524 kts 93°
2026-04-25 21:25 16.78337 -32.74551 39064 ft 525 kts 93°
2026-04-25 21:25 16.77914 -32.66938 39064 ft 525 kts 93°
2026-04-25 21:26 16.77489 -32.59332 39067 ft 525 kts 93°
2026-04-25 21:26 16.77060 -32.51719 39064 ft 526 kts 93°
2026-04-25 21:27 16.76630 -32.44144 39064 ft 526 kts 93°
2026-04-25 21:27 16.76194 -32.36515 39064 ft 526 kts 93°
2026-04-25 21:28 16.75756 -32.28884 39061 ft 526 kts 93°
2026-04-25 21:28 16.75315 -32.21261 39061 ft 526 kts 93°
2026-04-25 21:29 16.74863 -32.13640 39061 ft 526 kts 93°
2026-04-25 21:29 16.74408 -32.06050 39069 ft 527 kts 92°
2026-04-25 21:30 16.73955 -31.98417 39061 ft 527 kts 92°
2026-04-25 21:30 16.73578 -31.92062 39061 ft 527 kts 92°
2026-04-25 21:31 16.73046 -31.83134 39062 ft 527 kts 93°
2026-04-25 21:31 16.72588 -31.75500 39062 ft 527 kts 93°
2026-04-25 21:32 16.72126 -31.67865 39060 ft 526 kts 93°
2026-04-25 21:32 16.71666 -31.60296 39061 ft 526 kts 93°
2026-04-25 21:33 16.71200 -31.52678 39061 ft 526 kts 93°
2026-04-25 21:33 16.70730 -31.45050 39059 ft 527 kts 93°
2026-04-25 21:34 16.70258 -31.37420 39059 ft 527 kts 93°
2026-04-25 21:34 16.69779 -31.29784 39059 ft 527 kts 93°
2026-04-25 21:35 16.69288 -31.22151 39061 ft 527 kts 93°
2026-04-25 21:35 16.68804 -31.14569 39059 ft 527 kts 93°
2026-04-25 21:36 16.68320 -31.06935 39056 ft 527 kts 93°
2026-04-25 21:36 16.67833 -30.99301 39056 ft 527 kts 93°
2026-04-25 21:37 16.67427 -30.92957 39056 ft 528 kts 93°
2026-04-25 21:37 16.66851 -30.84028 39056 ft 528 kts 93°
2026-04-25 21:38 16.66355 -30.76388 39056 ft 528 kts 93°
2026-04-25 21:38 16.65856 -30.68745 39056 ft 528 kts 93°
2026-04-25 21:39 16.65358 -30.61157 39057 ft 528 kts 93°
2026-04-25 21:39 16.64853 -30.53513 39056 ft 528 kts 93°
2026-04-25 21:40 16.64345 -30.45854 39054 ft 528 kts 93°
2026-04-25 21:40 16.63824 -30.38220 39052 ft 526 kts 94°
2026-04-25 21:41 16.63304 -30.30601 39053 ft 526 kts 94°
2026-04-25 21:41 16.62789 -30.22993 39053 ft 526 kts 94°
2026-04-25 21:42 16.62273 -30.15384 39053 ft 526 kts 94°
2026-04-25 21:42 16.61754 -30.07772 39056 ft 527 kts 94°
2026-04-25 21:43 16.61234 -30.00193 39050 ft 527 kts 94°
2026-04-25 21:43 16.60708 -29.92568 39053 ft 527 kts 94°
2026-04-25 21:44 16.60178 -29.84938 39050 ft 527 kts 94°
2026-04-25 21:45 16.59379 -29.73488 39051 ft 529 kts 94°
2026-04-25 21:45 16.58842 -29.65849 39048 ft 529 kts 94°
2026-04-25 21:46 16.58300 -29.58197 39048 ft 529 kts 94°
2026-04-25 21:46 16.57745 -29.50550 39048 ft 529 kts 94°
2026-04-25 21:47 16.57191 -29.42895 39049 ft 529 kts 94°
2026-04-25 21:47 16.56645 -29.35291 39043 ft 529 kts 94°
2026-04-25 21:48 16.56093 -29.27632 39043 ft 529 kts 94°
2026-04-25 21:48 16.55538 -29.19974 39042 ft 530 kts 94°
2026-04-25 21:49 16.54979 -29.12307 39041 ft 530 kts 94°
2026-04-25 21:49 16.54418 -29.04644 39039 ft 528 kts 94°
2026-04-25 21:50 16.53857 -28.97026 39043 ft 527 kts 94°
2026-04-25 21:50 16.53296 -28.89449 39042 ft 527 kts 94°
2026-04-25 21:51 16.52728 -28.81813 39044 ft 527 kts 94°
2026-04-25 21:51 16.52159 -28.74194 39040 ft 527 kts 94°
2026-04-25 21:52 16.51581 -28.66624 39040 ft 527 kts 94°
2026-04-25 21:52 16.50996 -28.58997 39040 ft 528 kts 94°
2026-04-25 21:53 16.50415 -28.51370 39039 ft 528 kts 94°
2026-04-25 21:53 16.49833 -28.43732 39039 ft 528 kts 94°
2026-04-25 21:54 16.49349 -28.37398 39042 ft 528 kts 94°
2026-04-25 21:54 16.48763 -28.29775 39040 ft 528 kts 94°
2026-04-25 21:55 16.48173 -28.22140 39031 ft 528 kts 94°
2026-04-25 21:55 16.47582 -28.14518 39034 ft 528 kts 94°
2026-04-25 21:56 16.46987 -28.06889 39036 ft 528 kts 94°
2026-04-25 21:56 16.46389 -27.99261 39037 ft 528 kts 94°
2026-04-25 21:57 16.45792 -27.91676 39036 ft 528 kts 94°
2026-04-25 21:57 16.45210 -27.84050 39034 ft 528 kts 93°
2026-04-25 21:58 16.44853 -27.76411 39031 ft 528 kts 92°
2026-04-25 21:58 16.44396 -27.68762 39034 ft 528 kts 94°
2026-04-25 21:59 16.43810 -27.61129 39025 ft 527 kts 94°
2026-04-25 21:59 16.43193 -27.53577 39031 ft 527 kts 94°
2026-04-25 22:00 16.42264 -27.42159 39032 ft 528 kts 94°
2026-04-25 22:00 16.41647 -27.34541 39031 ft 528 kts 94°
2026-04-25 22:01 16.41028 -27.26928 39029 ft 528 kts 94°
2026-04-25 22:01 16.40509 -27.20578 39029 ft 528 kts 94°
2026-04-25 22:02 16.39778 -27.11676 39029 ft 528 kts 94°
2026-04-25 22:02 16.39149 -27.04051 39026 ft 528 kts 94°
2026-04-25 22:03 16.38518 -26.96487 39026 ft 528 kts 95°
2026-04-25 22:03 16.37872 -26.88871 39026 ft 528 kts 95°
2026-04-25 22:04 16.37230 -26.81252 39023 ft 528 kts 95°
2026-04-25 22:04 16.36590 -26.73632 39023 ft 528 kts 95°
2026-04-25 22:05 16.35948 -26.66007 39023 ft 528 kts 95°
2026-04-25 22:05 16.35303 -26.58386 39020 ft 528 kts 95°
2026-04-25 22:06 16.34657 -26.50801 39021 ft 529 kts 95°
2026-04-25 22:06 16.34005 -26.43171 39021 ft 529 kts 95°
2026-04-25 22:07 16.33457 -26.36782 39020 ft 529 kts 95°
2026-04-25 22:07 16.32694 -26.27919 39020 ft 529 kts 95°
2026-04-25 22:08 16.32034 -26.20290 39020 ft 529 kts 95°
2026-04-25 22:08 16.31370 -26.12663 39018 ft 529 kts 95°
2026-04-25 22:09 16.30693 -26.05042 39018 ft 529 kts 95°
2026-04-25 22:09 16.30017 -25.97413 39009 ft 529 kts 95°
2026-04-25 22:10 16.29345 -25.89792 39011 ft 529 kts 95°
2026-04-25 22:10 16.28672 -25.82167 38999 ft 529 kts 95°
2026-04-25 22:11 16.27995 -25.74531 38994 ft 529 kts 95°
2026-04-25 22:11 16.27315 -25.66902 38994 ft 529 kts 95°
2026-04-25 22:12 16.26636 -25.59310 38984 ft 530 kts 95°
2026-04-25 22:12 16.26066 -25.52967 38988 ft 530 kts 95°
2026-04-25 22:13 16.25261 -25.44038 38986 ft 530 kts 95°
2026-04-25 22:13 16.24570 -25.36403 38995 ft 530 kts 95°
2026-04-25 22:14 16.23880 -25.28817 38995 ft 530 kts 95°
2026-04-25 22:14 16.23172 -25.21170 38990 ft 530 kts 95°
2026-04-25 22:15 16.22463 -25.13540 38991 ft 530 kts 95°
2026-04-25 22:16 16.21405 -25.02076 38996 ft 530 kts 95°
2026-04-25 22:16 16.20697 -24.94426 38992 ft 532 kts 95°
2026-04-25 22:17 16.19985 -24.86764 38986 ft 532 kts 95°
2026-04-25 22:17 16.19275 -24.79153 38988 ft 531 kts 95°
2026-04-25 22:18 16.18559 -24.71506 38998 ft 531 kts 95°
2026-04-25 22:18 16.17839 -24.63852 38995 ft 531 kts 95°
2026-04-25 22:19 16.17116 -24.56198 38989 ft 531 kts 95°
2026-04-25 22:19 16.16390 -24.48538 38988 ft 532 kts 95°
2026-04-25 22:20 16.15666 -24.40930 38992 ft 532 kts 95°
2026-04-25 22:20 16.14923 -24.33268 38993 ft 532 kts 95°
2026-04-25 22:21 16.14180 -24.25610 38993 ft 531 kts 95°
2026-04-25 22:21 16.13442 -24.17954 38998 ft 532 kts 95°
2026-04-25 22:22 16.12703 -24.10301 39001 ft 532 kts 95°
2026-04-25 22:22 16.11961 -24.02644 38996 ft 532 kts 95°
2026-04-25 22:23 16.11220 -23.95027 39007 ft 532 kts 95°
2026-04-25 22:23 16.10472 -23.87373 39001 ft 532 kts 95°
2026-04-25 22:24 16.09720 -23.79701 39004 ft 532 kts 95°
2026-04-25 22:24 16.08965 -23.72036 39000 ft 532 kts 96°
2026-04-25 22:25 16.08208 -23.64379 38995 ft 532 kts 96°
2026-04-25 22:25 16.07448 -23.56709 39002 ft 532 kts 96°
2026-04-25 22:26 16.06683 -23.49109 39003 ft 532 kts 96°
2026-04-25 22:26 16.05908 -23.41455 39000 ft 532 kts 96°
2026-04-25 22:27 16.05138 -23.33798 38998 ft 532 kts 96°
2026-04-25 22:27 16.04369 -23.26153 38999 ft 530 kts 96°
2026-04-25 22:28 16.03601 -23.18541 38993 ft 529 kts 96°
2026-04-25 22:28 16.02829 -23.10932 38997 ft 529 kts 96°
2026-04-25 22:29 16.02061 -23.03377 38994 ft 528 kts 96°
2026-04-25 22:29 16.01286 -22.95789 39001 ft 527 kts 96°
2026-04-25 22:30 16.00119 -22.84407 38998 ft 527 kts 96°
2026-04-25 22:30 15.99471 -22.78112 39000 ft 527 kts 96°
2026-04-25 22:31 15.98562 -22.69316 38999 ft 526 kts 96°
2026-04-25 22:31 15.97767 -22.61748 38994 ft 526 kts 96°
2026-04-25 22:32 15.96972 -22.54196 38991 ft 525 kts 96°
2026-04-25 22:32 15.96182 -22.46642 38990 ft 525 kts 96°
2026-04-25 22:33 15.95391 -22.39092 38988 ft 525 kts 96°
2026-04-25 22:33 15.94597 -22.31536 38991 ft 525 kts 96°
2026-04-25 22:34 15.93807 -22.24040 38991 ft 525 kts 96°
2026-04-25 22:34 15.93007 -22.16488 38993 ft 524 kts 96°
2026-04-25 22:35 15.92207 -22.08959 38989 ft 524 kts 96°
2026-04-25 22:35 15.91406 -22.01439 38986 ft 524 kts 97°
2026-04-25 22:36 15.90602 -21.93919 38990 ft 523 kts 97°
2026-04-25 22:36 15.89801 -21.86454 38988 ft 523 kts 97°
2026-04-25 22:37 15.88988 -21.78947 38964 ft 522 kts 96°
2026-04-25 22:37 15.88167 -21.71454 38984 ft 522 kts 96°
2026-04-25 22:38 15.87351 -21.63962 38985 ft 522 kts 96°
2026-04-25 22:38 15.86537 -21.56470 38985 ft 521 kts 96°
2026-04-25 22:39 15.85722 -21.48990 38985 ft 521 kts 96°
2026-04-25 22:39 15.84903 -21.41508 38985 ft 521 kts 96°
2026-04-25 22:40 15.84088 -21.34082 38985 ft 521 kts 96°
2026-04-25 22:40 15.83265 -21.26610 38979 ft 520 kts 96°
2026-04-25 22:41 15.82441 -21.19152 38977 ft 520 kts 97°
2026-04-25 22:41 15.81613 -21.11676 38977 ft 520 kts 97°
2026-04-25 22:42 15.80924 -21.05473 38977 ft 520 kts 97°
2026-04-25 22:42 15.79955 -20.96795 38974 ft 520 kts 97°
2026-04-25 22:43 15.79110 -20.89339 38977 ft 520 kts 97°
2026-04-25 22:43 15.78406 -20.83124 38974 ft 520 kts 97°
2026-04-25 22:44 15.77564 -20.75665 38975 ft 521 kts 97°
2026-04-25 22:44 15.76721 -20.68186 38974 ft 521 kts 97°
2026-04-25 22:45 15.75875 -20.60715 38974 ft 521 kts 97°
2026-04-25 22:45 15.75027 -20.53245 38971 ft 521 kts 97°
2026-04-25 22:46 15.74181 -20.45822 38971 ft 521 kts 97°
2026-04-25 22:46 15.73326 -20.38342 38969 ft 522 kts 97°
2026-04-25 22:47 15.72467 -20.30851 38966 ft 522 kts 97°
2026-04-25 22:47 15.71607 -20.23365 38961 ft 521 kts 97°
2026-04-25 22:48 15.70748 -20.15920 38966 ft 519 kts 97°
2026-04-25 22:48 15.69884 -20.08485 38966 ft 519 kts 97°
2026-04-25 22:49 15.68522 -20.01137 38964 ft 518 kts 108°
2026-04-25 22:49 15.66127 -19.94148 38965 ft 517 kts 113°
2026-04-25 22:50 15.63515 -19.87173 38961 ft 517 kts 112°
2026-04-25 22:50 15.60984 -19.80187 38960 ft 517 kts 112°
2026-04-25 22:51 15.58501 -19.73170 38960 ft 518 kts 111°
2026-04-25 22:51 15.56044 -19.66196 38955 ft 518 kts 111°
2026-04-25 22:52 15.53402 -19.59250 38955 ft 516 kts 117°
2026-04-25 22:52 15.50776 -19.53691 38955 ft 516 kts 119°
2026-04-25 22:53 15.46998 -19.45925 38960 ft 516 kts 118°
2026-04-25 22:53 15.43858 -19.39290 38948 ft 514 kts 118°
2026-04-25 22:54 15.40740 -19.32618 38951 ft 514 kts 118°
2026-04-25 22:54 15.37627 -19.25953 38949 ft 514 kts 118°
2026-04-25 22:55 15.34509 -19.19293 38949 ft 514 kts 118°
2026-04-25 22:55 15.31385 -19.12631 38951 ft 514 kts 118°
2026-04-25 22:56 15.28261 -19.05974 38944 ft 514 kts 118°
2026-04-25 22:56 15.25134 -18.99318 38944 ft 514 kts 118°
2026-04-25 22:57 15.22024 -18.92703 38942 ft 514 kts 118°
2026-04-25 22:57 15.18889 -18.86046 38941 ft 514 kts 118°
2026-04-25 22:58 15.15751 -18.79408 38932 ft 511 kts 118°
2026-04-25 22:58 15.12630 -18.72802 38935 ft 511 kts 118°
2026-04-25 22:59 15.11065 -18.69487 38626 ft 515 kts 118°
2026-04-25 22:59 15.09496 -18.66165 37717 ft 513 kts 117°
2026-04-25 22:59 15.07928 -18.62845 36851 ft 514 kts 117°
2026-04-25 22:59 15.06355 -18.59515 36131 ft 517 kts 117°
2026-04-25 23:00 15.04769 -18.56160 35482 ft 520 kts 117°
2026-04-25 23:00 15.03177 -18.52793 34877 ft 522 kts 117°
2026-04-25 23:00 15.01575 -18.49407 34230 ft 525 kts 117°
2026-04-25 23:00 14.99985 -18.46047 33514 ft 527 kts 117°
2026-04-25 23:01 14.98367 -18.42631 32802 ft 529 kts 116°
2026-04-25 23:01 14.96741 -18.39198 32116 ft 532 kts 116°
2026-04-25 23:01 14.95110 -18.35758 31442 ft 534 kts 116°
2026-04-25 23:01 14.93472 -18.32303 30767 ft 536 kts 116°
2026-04-25 23:02 14.91826 -18.28833 30086 ft 538 kts 116°
2026-04-25 23:02 14.90185 -18.25376 29292 ft 533 kts 116°
2026-04-25 23:02 14.88559 -18.21952 28545 ft 526 kts 116°
2026-04-25 23:02 14.86964 -18.18594 27788 ft 516 kts 116°
2026-04-25 23:03 14.85391 -18.15285 27069 ft 508 kts 116°
2026-04-25 23:03 14.83850 -18.12045 26356 ft 502 kts 116°
2026-04-25 23:03 14.82318 -18.08829 25670 ft 494 kts 116°
2026-04-25 23:03 14.80811 -18.05675 24970 ft 486 kts 116°
2026-04-25 23:04 14.79340 -18.02596 24286 ft 480 kts 116°
2026-04-25 23:04 14.78348 -18.00520 23836 ft 476 kts 116°
2026-04-25 23:04 14.76424 -17.96489 22861 ft 466 kts 116°
2026-04-25 23:04 14.74996 -17.93496 22156 ft 463 kts 117°
2026-04-25 23:05 14.73577 -17.90521 21484 ft 459 kts 117°
2026-04-25 23:05 14.72175 -17.87582 20826 ft 454 kts 117°
2026-04-25 23:05 14.70784 -17.84668 20188 ft 450 kts 117°
2026-04-25 23:05 14.69408 -17.81787 19550 ft 445 kts 117°
2026-04-25 23:06 14.68042 -17.78927 18914 ft 442 kts 117°
2026-04-25 23:06 14.66688 -17.76095 18289 ft 438 kts 117°
2026-04-25 23:06 14.65345 -17.73285 17596 ft 433 kts 117°
2026-04-25 23:06 14.64019 -17.70513 16946 ft 428 kts 117°
2026-04-25 23:07 14.62708 -17.67772 16322 ft 422 kts 118°
2026-04-25 23:07 14.61424 -17.65088 15717 ft 416 kts 118°
2026-04-25 23:07 14.60147 -17.62423 15124 ft 411 kts 118°
2026-04-25 23:07 14.58902 -17.59824 14542 ft 406 kts 118°
2026-04-25 23:08 14.57658 -17.57227 13979 ft 400 kts 118°
2026-04-25 23:08 14.56432 -17.54669 13371 ft 396 kts 118°
2026-04-25 23:08 14.55215 -17.52129 12766 ft 392 kts 119°
2026-04-25 23:08 14.54013 -17.49627 12182 ft 386 kts 118°
2026-04-25 23:09 14.52832 -17.47162 11652 ft 381 kts 120°
2026-04-25 23:09 14.51665 -17.44733 11242 ft 376 kts 118°
2026-04-25 23:09 14.50516 -17.42337 11055 ft 361 kts 117°
2026-04-25 23:09 14.49467 -17.40141 10932 ft 321 kts 120°
2026-04-25 23:10 14.48521 -17.38161 10820 ft 297 kts 119°
2026-04-25 23:10 14.47609 -17.36265 10723 ft 293 kts 120°
2026-04-25 23:10 14.46709 -17.34405 10611 ft 292 kts 119°
2026-04-25 23:10 14.45803 -17.32528 10427 ft 291 kts 120°
2026-04-25 23:11 14.44903 -17.30669 10051 ft 289 kts 118°
2026-04-25 23:11 14.44011 -17.28828 9528 ft 284 kts 119°
2026-04-25 23:11 14.43132 -17.27012 9016 ft 282 kts 118°
2026-04-25 23:11 14.42254 -17.25196 8531 ft 283 kts 117°
2026-04-25 23:12 14.41377 -17.23381 8047 ft 283 kts 117°
2026-04-25 23:12 14.40502 -17.21566 7607 ft 282 kts 116°
2026-04-25 23:12 14.39628 -17.19756 7145 ft 282 kts 116°
2026-04-25 23:12 14.38754 -17.17942 6815 ft 284 kts 116°
2026-04-25 23:13 14.37984 -17.16115 6616 ft 271 kts 103°
2026-04-25 23:13 14.37743 -17.14228 6204 ft 262 kts 90°
2026-04-25 23:13 14.37719 -17.12360 5819 ft 258 kts 88°
2026-04-25 23:13 14.37769 -17.10516 5382 ft 255 kts 80°
2026-04-25 23:14 14.38277 -17.08804 5037 ft 245 kts 57°
2026-04-25 23:14 14.39387 -17.07661 4666 ft 219 kts 25°
2026-04-25 23:14 14.40775 -17.07371 4344 ft 192 kts
2026-04-25 23:14 14.42040 -17.07328 4076 ft 171 kts
2026-04-25 23:15 14.43182 -17.07280 3814 ft 158 kts
2026-04-25 23:15 14.44258 -17.07244 3605 ft 153 kts
2026-04-25 23:15 14.45319 -17.07215 3400 ft 150 kts
2026-04-25 23:15 14.46348 -17.07219 3193 ft 147 kts
2026-04-25 23:16 14.47362 -17.07229 3004 ft 145 kts
2026-04-25 23:16 14.48353 -17.07237 2998 ft 145 kts
2026-04-25 23:16 14.49364 -17.07244 3010 ft 146 kts
2026-04-25 23:16 14.50385 -17.07250 3017 ft 145 kts
2026-04-25 23:17 14.51395 -17.07256 2883 ft 146 kts
2026-04-25 23:17 14.52401 -17.07261 2731 ft 143 kts
2026-04-25 23:17 14.53395 -17.07264 2532 ft 144 kts
2026-04-25 23:17 14.54388 -17.07268 2346 ft 144 kts
2026-04-25 23:18 14.55387 -17.07272 2184 ft 144 kts
2026-04-25 23:18 14.56384 -17.07274 2008 ft 143 kts
2026-04-25 23:18 14.57371 -17.07277 1826 ft 141 kts
2026-04-25 23:18 14.58346 -17.07272 1633 ft 140 kts
2026-04-25 23:19 14.59323 -17.07235 1378 ft 143 kts
2026-04-25 23:19 14.60339 -17.07232 1142 ft 153 kts 358°
2026-04-25 23:19 14.61388 -17.07262 1003 ft 148 kts 358°
2026-04-25 23:19 14.62401 -17.07266 798 ft 146 kts 360°
2026-04-25 23:20 14.63487 -17.07259 690 ft 159 kts 360°
2026-04-25 23:20 14.64539 -17.07268 512 ft 143 kts
2026-04-25 23:20 14.65516 -17.07268 305 ft 141 kts 358°
2026-04-25 23:20 14.66378 -17.07278 271 ft 98 kts 359°
2026-04-25 23:21 14.66929 -17.07281 275 ft 58 kts 360°
2026-04-25 23:21 14.67072 -17.07247 277 ft 3 kts 60°
2026-04-25 23:21 14.67076 -17.07224 275 ft 5 kts 88°
2026-04-25 23:21 14.67069 -17.07177 275 ft 11 kts 96°
2026-04-25 23:22 14.67068 -17.07135 274 ft 0 kts 87°
2026-04-25 23:22 14.67068 -17.07130 274 ft 3 kts 87°
2026-04-25 23:22 14.67070 -17.07087 275 ft 8 kts 87°
2026-04-25 23:23 14.67075 -17.07042 277 ft 0 kts 81°
2026-04-25 23:23 14.67076 -17.07038 277 ft 2 kts 77°
2026-04-25 23:23 14.67097 -17.06997 279 ft 10 kts 54°
2026-04-25 23:23 14.67143 -17.06979 279 ft 6 kts
2026-04-25 23:24 14.67174 -17.06974 279 ft 2 kts 15°
2026-04-25 23:24 14.67180 -17.06969 281 ft 2 kts 36°
2026-04-25 23:24 14.67183 -17.06959 281 ft 1 kts 72°
2026-04-25 23:24 14.67179 -17.06947 279 ft 5 kts 108°
2026-04-25 23:25 14.67158 -17.06903 281 ft 7 kts 120°
2026-04-25 23:25 14.67154 -17.06894 279 ft 2 kts 120°
2026-04-25 23:25 14.67143 -17.06875 279 ft 0 kts 121°
2026-04-25 23:25 14.67141 -17.06872 279 ft 2 kts 121°
2026-04-25 23:26 14.67132 -17.06857 281 ft 0 kts 122°
2026-04-25 23:26 14.67131 -17.06856 281 ft 0 kts 122°